, AZ

(GMT )
Fort Huachuca

Weather History for KALK - February, 2013

Change the Weather History Date:

Thursday, February 21, 2013

  Actual Average Record
Temperature  
Mean Temperature 32 °F -  
Max Temperature 44 °F - - ()
Min Temperature 21 °F - - ()
Degree Days  
Heating Degree Days 32    
Moisture  
Dew Point 24 °F    
Average Humidity 70    
Maximum Humidity 93    
Minimum Humidity 42    
Precipitation  
Precipitation 0.00 in - - ()
Sea Level Pressure  
Sea Level Pressure 29.91 in    
Wind  
Wind Speed 7 mph (WSW)    
Max Wind Speed 13 mph    
Max Gust Speed -    
Averages and records for this station are not official NWS values.
T = Trace of Precipitation, MM = Missing Value Source: NWS Daily Summary

Daily Weather History Graph

Daily Weather History Graph

Search for Another Location

Airport or City:

Trip Planner

Search our weather history database for the weather conditions in past years. The results will help you decide how hot, cold, wet, or windy it might be!

Date:

Astronomy

Feb. 21, 2013 Rise Set
Actual Time 6:57 AM MST 6:13 PM MST
Civil Twilight 6:32 AM MST 6:38 PM MST
Nautical Twilight 6:04 AM MST 7:06 PM MST
Astronomical Twilight 5:35 AM MST 7:35 PM MST
Moon 2:40 PM MST (2/21) 3:54 AM MST (2/21)
Length of Visible Light 12h 05m
Length of Day
11h 16m
Waxing Gibbous, 84% of the Moon is Illuminated
Feb 21
Waxing Gibbous
Feb 25
Full
Mar 4
Last Quarter
Mar 11
New
Mar 19
First Quarter

Hourly Weather History & Observations

Time (MST) Temp. Windchill Dew Point Humidity Pressure Visibility Wind Dir Wind Speed Gust Speed Precip Events Conditions
12:23 AM 26.6 °F 19.1 °F 24.8 °F 93% 29.92 in - West 6.9 mph - N/A   Mostly Cloudy
12:56 AM 26.1 °F 16.2 °F 24.1 °F 92% 29.85 in - West 10.4 mph - N/A   Mostly Cloudy
1:08 AM 26.6 °F 17.5 °F 24.8 °F 93% 29.92 in - West 9.2 mph - N/A   Mostly Cloudy
2:56 AM 27.0 °F 16.1 °F 23.0 °F 85% 29.89 in - SW 12.7 mph - N/A   Clear
3:56 AM 26.1 °F 17.6 °F 21.9 °F 84% 29.91 in - SW 8.1 mph - N/A   Clear
4:56 AM 26.1 °F 15.0 °F 21.0 °F 81% 29.91 in - SW 12.7 mph - N/A   Clear
5:56 AM 27.0 °F 18.0 °F 21.0 °F 78% 29.93 in - SW 9.2 mph - N/A   Clear
7:56 AM 21.9 °F - 19.0 °F 89% 29.99 in - Calm Calm - N/A   Clear
9:56 AM 34.0 °F - 26.1 °F 73% 29.96 in - North - - N/A   Clear
10:56 AM 37.0 °F - 27.0 °F 67% 29.95 in - Calm Calm - N/A   Clear
11:56 AM 39.9 °F 36.7 °F 27.0 °F 60% 29.92 in - NNW 4.6 mph - N/A   Clear
12:56 PM 42.1 °F 37.7 °F 25.0 °F 51% 29.91 in - North 6.9 mph - N/A   Scattered Clouds
1:56 PM 42.1 °F 38.4 °F 23.0 °F 47% 29.88 in - NW 5.8 mph - N/A   Scattered Clouds
2:56 PM 43.0 °F 39.5 °F 23.0 °F 45% 29.87 in - Variable 5.8 mph - N/A   Partly Cloudy
3:56 PM 43.0 °F 39.5 °F 24.1 °F 47% 29.86 in - NW 5.8 mph - N/A   Mostly Cloudy
4:56 PM 44.1 °F 38.6 °F 21.9 °F 42% 29.86 in - WSW 10.4 mph - N/A   Mostly Cloudy
5:56 PM 41.0 °F 37.1 °F 21.9 °F 47% 29.86 in - SSW 5.8 mph - N/A   Clear
6:56 PM 39.0 °F 34.8 °F 27.0 °F 62% 29.91 in - ENE 5.8 mph - N/A   Overcast
7:56 PM 36.0 °F 32.1 °F 27.0 °F 70% 29.93 in - SSE 4.6 mph - N/A   Scattered Clouds
8:56 PM 33.1 °F 26.1 °F 26.1 °F 75% 29.92 in - SSE 8.1 mph - N/A   Clear
9:56 PM 33.1 °F 26.1 °F 26.1 °F 75% 29.92 in - ESE 8.1 mph - N/A   Partly Cloudy
10:56 PM 33.1 °F 27.7 °F 27.0 °F 78% 29.92 in - East 5.8 mph - N/A   Clear
11:56 PM 30.9 °F 24.3 °F 26.1 °F 82% 29.91 in - ESE 6.9 mph - N/A   Mostly Cloudy